AO-07 1 07530U 74089B 20247.53535782 -.00000041 00000-0 24660-4 0 9994 2 07530 101.8077 216.8620 0011857 212.6622 255.6133 12.53644900095776 UO-11 1 14781U 84021B 20247.61528131 .00000083 00000-0 16233-4 0 9998 2 14781 097.5905 255.7015 0007261 311.8118 048.2476 14.83188571943410 LO-19 1 20442U 90005G 20247.57728326 -.00000017 00000-0 10390-4 0 9997 2 20442 098.6974 195.1127 0010669 287.2596 072.7420 14.32959755599740 HUBBLE 1 20580U 90037B 20247.90690821 .00000443 00000-0 15955-4 0 9994 2 20580 28.4690 160.7532 0002635 211.6910 216.5439 15.09425917467916 MET-2/21 1 22782U 93055A 20247.56141385 .00000080 00000-0 58728-4 0 9993 2 22782 082.5520 171.6067 0023068 019.4298 153.5567 13.83829915363840 AO-27 1 22825U 93061C 20247.73384737 -.00000016 00000-0 11890-4 0 9996 2 22825 98.9257 252.1636 0009034 143.4538 216.7261 14.30091714405273 IO-26 1 22826U 93061D 20247.56200808 -.00000009 00000-0 14563-4 0 9996 2 22826 098.9198 251.9255 0009723 133.0514 227.1484 14.30428002405217 FO-29 1 24278U 96046B 20247.54845732 -.00000034 00000-0 97005-6 0 9996 2 24278 098.5886 347.1766 0350581 172.4832 188.1762 13.53099425187440 NOAA-15 1 25338U 98030A 20247.52996262 .00000027 00000-0 29937-4 0 9990 2 25338 098.7134 272.1679 0011067 041.0294 319.1716 14.25987958160108 GO-32 1 25397U 98043D 20247.45586281 -.00000023 00000-0 92004-5 0 9990 2 25397 098.7319 188.3761 0001432 144.5279 215.5995 14.23689657150655 ISS 1 25544U 98067A 20247.93730492 .00001386 00000-0 33077-4 0 9994 2 25544 51.6479 318.7522 0002008 79.3887 92.8345 15.49215077244220 NO-44 1 26931U 01043C 20247.54107466 -.00000027 00000-0 21380-4 0 9995 2 26931 067.0512 300.8817 0006369 275.5982 084.4392 14.30586104988246 SO-50 1 27607U 02058C 20247.30397216 .00000001 00000-0 20534-4 0 9992 2 27607 64.5553 136.3474 0038424 151.8927 208.4261 14.75655696952344 CO-55 1 27844U 03031E 20247.52185620 .00000040 00000-0 37531-4 0 9993 2 27844 098.6828 254.0801 0009734 182.7230 177.3896 14.22253981891190 CO-57 1 27848U 03031J 20247.50085645 .00000023 00000-0 30107-4 0 9994 2 27848 098.6894 254.6224 0009354 195.5348 164.5543 14.21838898891037 RS-22 1 27939U 03042A 20247.76310037 .00000091 00000-0 24872-4 0 9998 2 27939 98.1016 21.5895 0014309 105.3206 254.9586 14.66883372905495 NOAA-18 1 28654U 05018A 20247.50580752 .00000088 00000-0 72267-4 0 9990 2 28654 099.0371 304.6379 0014364 015.6969 344.4645 14.12536451787938 CO-58 1 28895U 05043F 20247.34096189 .00000094 00000-0 26886-4 0 9996 2 28895 98.0206 21.5608 0017575 39.2122 321.0350 14.63795179792234 Falconsat-3 1 30776U 07006E 20247.12613441 .00002613 00000-0 69290-4 0 9995 2 30776 35.4342 142.9600 0002639 198.0003 162.0631 15.38125164748801 CO-65 1 32785U 08021C 20247.71455158 .00000202 00000-0 27370-4 0 9994 2 32785 97.5788 232.3126 0011730 229.7291 130.2902 14.88508325669589 AAUSAT2 1 32788U 08021F 20247.55623968 .00000864 00000-0 83590-4 0 9995 2 32788 097.4935 248.5922 0012583 146.5439 213.6580 14.95133834670986 DO-64 1 32789U 08021G 20247.37761459 .00001216 00000-0 83078-4 0 9997 2 32789 097.4128 287.4365 0013275 054.3520 305.8943 15.07896311673553 CO-66 1 32791U 08021J 20247.51281530 .00000327 00000-0 38365-4 0 9994 2 32791 97.5456 238.2350 0012652 195.8497 164.2328 14.91100851670090 RS-30 1 32953U 08025A 20247.70727004 .00000037 00000-0 19437-3 0 9996 2 32953 82.4998 229.2324 0018005 241.9799 117.9458 12.43098039557352 PRISM 1 33493U 09002B 20247.38700628 .00000859 00000-0 79879-4 0 9998 2 33493 98.1476 190.9320 0015656 152.5484 207.6567 14.97114463631378 NOAA-19 1 33591U 09005A 20247.51519192 .00000037 00000-0 45603-4 0 9995 2 33591 099.1967 254.8968 0013386 213.6854 146.3467 14.12429877596158 TISAT-1 1 36799U 10035E 20247.46558781 .00000147 00000-0 20880-4 0 9996 2 36799 098.2006 060.7666 0013591 076.1272 284.1457 14.91413591550555 JUGNU 1 37839U 11058B 20247.13498428 .00000288 00000-0 11458-4 0 9990 2 37839 19.9601 171.6703 0019073 164.4666 326.8253 14.12686970459894 SRMSAT 1 37841U 11058D 20247.68310791 .00000348 00000-0 46355-4 0 9990 2 37841 19.9710 234.2979 0011900 24.1797 131.2540 14.10669315459324 AO-71 1 37854U 11061E 20247.29198043 .00001967 00000-0 10541-3 0 9994 2 37854 101.7071 018.7282 0157964 190.1976 169.6021 15.07450611483201 HRBE 1 37855U 11061F 20247.42091441 .00001869 00000-0 98982-4 0 9991 2 37855 101.7199 016.0429 0170513 203.4143 155.9240 15.06469624482940 HORYU-2 1 38340U 12025D 20247.10930100 .00000162 00000-0 31532-4 0 9994 2 38340 98.2741 302.5003 0012224 148.0789 212.1162 14.75884029446414 RS-40 1 38735U 12041C 20247.79311623 -.00000004 00000-0 -98410-4 0 9993 2 38735 82.4784 311.8194 0016679 354.8927 5.1998 12.42580220367582 BEESAT-3 1 39135U 13015F 20247.42968344 .00001292 00000-0 71641-4 0 9993 2 39135 064.8665 049.5581 0034569 230.3354 129.4722 15.18313520407059 BEESAT-2 1 39136U 13015G 20247.57445887 .00001016 00000-0 59435-4 0 9993 2 39136 064.8729 054.3383 0034446 271.0645 088.6535 15.17709447406978 ZACUBE-1 1 39417U 13066B 20247.52048799 .00000216 00000-0 33353-4 0 9999 2 39417 097.5689 241.2140 0059487 023.3688 337.0209 14.81311488366599 TRITON-1 1 39427U 13066M 20247.79414644 .00000141 00000-0 30508-4 0 9991 2 39427 97.7326 204.4039 0113315 186.7778 173.1902 14.68037949363344 GOMX-1 1 39430U 13066Q 20247.75954693 .00000207 00000-0 46838-4 0 9990 2 39430 97.7927 181.5667 0149897 298.3118 60.3051 14.59431671361226 LO-74 1 39440U 13066AA 20247.51692544 .00000197 00000-0 34010-4 0 9996 2 39440 097.6376 225.7319 0081648 086.7807 274.2741 14.76045517364091 AO-73 1 39444U 13066AE 20247.67566383 .00000260 00000-0 38033-4 0 9998 2 39444 97.5627 243.6328 0058366 14.8015 345.4891 14.82172416365540 SPROUT 1 39770U 14029E 20247.76799881 .00000672 00000-0 79540-4 0 9996 2 39770 97.9022 353.7372 0010157 72.7736 287.4586 14.87837959340708 DUCHIFAT-1 1 40021U 14033M 20247.80195017 .00000286 00000-0 34844-4 0 9997 2 40021 97.9433 179.5260 0013855 34.5483 325.6632 14.90962787337567 NANOSATCBR1 1 40024U 14033Q 20247.80157732 .00000322 00000-0 39144-4 0 9991 2 40024 97.9269 175.6484 0013239 39.1944 321.0230 14.90124085337421 DTUSAT-2 1 40030U 14033W 20247.51886441 .00000228 00000-0 30411-4 0 9995 2 40030 097.9006 169.1110 0012998 043.6259 316.5983 14.88752395336624 EO-80 1 40032U 14033Y 20247.54039652 .00000257 00000-0 33561-4 0 9995 2 40032 097.9012 169.1354 0012924 044.3263 315.8986 14.88702519336601 ANTELSAT 1 40034U 14033AA 20247.52154721 .00000177 00000-0 33322-4 0 9996 2 40034 097.7062 099.4418 0059994 105.9471 254.8359 14.74291076333389 VELOX-1 1 40057U 14034E 20247.90248623 .00000250 00000-0 42374-4 0 9998 2 40057 98.2904 27.0654 0009604 254.2417 105.7740 14.77916821333221 DAURIA DX 1 1 40071U 14037C 20247.80180009 .00000082 00000-0 18036-4 0 9990 2 40071 98.4628 70.5506 0007305 242.8162 117.2306 14.81387072332856 HODOYOSHI-1 1 40299U 14070B 20247.79306598 .00000678 00000-0 30716-4 0 9990 2 40299 97.3184 322.6970 0011370 281.5112 226.5440 15.24152436323744 CHUBUSAT-1 1 40300U 14070C 20247.82529586 .00000582 00000-0 27900-4 0 9996 2 40300 97.2824 314.6220 0018552 300.7199 196.4871 15.22600776323436 QSAT-EOS 1 40301U 14070D 20247.83502376 .00001932 00000-0 74764-4 0 9996 2 40301 97.2886 320.4773 0023196 270.7837 226.6495 15.27164953323893 FIREBIRD FU3 1 40377U 15003B 20247.52472453 .00002197 00000-0 86470-4 0 9995 2 40377 099.0897 323.6901 0123808 053.6841 307.5745 15.20353106309164 FIREBIRD FU4 1 40378U 15003C 20247.77135598 .00002204 00000-0 86615-4 0 9999 2 40378 99.0898 324.0911 0123969 52.7302 308.5157 15.20372386309217 GRIFEX 1 40379U 15003D 20247.73463250 .00001955 00000-0 84134-4 0 9991 2 40379 99.0956 315.5040 0133360 79.1726 282.4479 15.16616400308714 NO-84 1 40654U 15025D 20246.38551053 .00013111 00000-0 14639-3 0 237 2 40654 54.9861 305.6316 0114564 29.7293 331.0228 15.55504854180999 DEORBITSAIL 1 40719U 15032E 20247.40736396 .00000321 00000-0 52518-4 0 9996 2 40719 097.8594 134.0908 0015588 321.1294 038.8794 14.77057409277604 NUDT-PHONESAT 1 40900U 15049B 20247.84463170 .00002676 00000-0 11191-3 0 9997 2 40900 97.4314 258.1292 0014209 72.0659 50.6302 15.24386456275135 XW-2A 1 40903U 15049E 20247.83953544 .00002799 00000-0 64564-4 0 9997 2 40903 97.2816 296.8277 0012371 346.4870 130.2304 15.43364226278565 XW-2C 1 40906U 15049H 20247.91330264 .00000756 00000-0 42538-4 0 9995 2 40906 97.4793 248.1173 0016270 100.5902 321.0137 15.16157579274141 XW-2D 1 40907U 15049J 20247.83944740 .00000625 00000-0 35556-4 0 9994 2 40907 97.4776 247.7643 0015745 97.7121 22.3204 15.16399545274154 LILACSAT-2 1 40908U 15049K 20247.82980388 .00000174 00000-0 13134-4 0 9999 2 40908 97.4934 245.9987 0017374 108.6450 11.8745 15.14090416273851 XW-2E 1 40909U 15049L 20247.83507270 .00001151 00000-0 58857-4 0 9993 2 40909 97.4644 251.3663 0015189 89.4108 32.7620 15.18568315274420 XW-2F 1 40910U 15049M 20247.87001740 .00001317 00000-0 67764-4 0 9991 2 40910 97.4694 250.4853 0016322 88.5322 356.1967 15.18077822274230 XW-2B 1 40911U 15049N 20247.82760624 .00000687 00000-0 38802-4 0 9990 2 40911 97.4788 248.4514 0015661 98.6874 23.2032 15.16324271274040 DCBB 1 40912U 15049P 20247.87839330 .00001467 00000-0 70102-4 0 9993 2 40912 97.4487 254.7175 0016266 67.5015 51.0836 15.20490330274635 TW-1C 1 40926U 15051B 20247.90915688 .00036887 00000-0 31820-3 0 9993 2 40926 97.0763 300.3288 0006879 138.9303 338.3993 15.69145276279312 TW-1A 1 40928U 15051D 20247.83250753 .00003692 00000-0 85576-4 0 9998 2 40928 97.1060 273.7546 0008466 258.5529 274.8027 15.43004628277450 IO-86 1 40931U 15052B 20247.15725257 .00000678 00000-0 52700-5 0 9999 2 40931 5.9991 141.2709 0014052 298.3152 61.5561 14.76641535266761 LQSat 1 40958U 15057A 20247.23077768 .00000009 00000-0 89566-5 0 9997 2 40958 097.8463 308.0458 0016710 259.1811 100.7517 14.73128554263962 ATHENOXAT-1 1 41168U 15077C 20247.54686370 .00001958 00000-0 66499-4 0 9995 2 41168 14.9872 208.3828 0011309 135.8422 224.2803 15.14521859261206 ChubuSat-2 1 41338U 16012B 20247.27650187 .00000318 00000-0 17938-4 0 9994 2 41338 031.0022 211.7261 0013806 167.9296 192.1672 15.00322955249439 ChubuSat-3 1 41339U 16012C 20247.32920173 .00000323 00000-0 18224-4 0 9991 2 41339 31.0112 208.9360 0013439 175.8725 184.2023 15.00485240249445 Horyu-4 1 41340U 16012D 20247.54282966 .00000460 00000-0 27921-4 0 9994 2 41340 31.0042 194.4700 0014047 203.9708 156.0274 15.01546505249624 OUFTI-1 1 41458U 16025C 20247.30316247 .00000705 00000-0 39515-4 0 9996 2 41458 098.1119 002.0345 0161714 307.8683 050.8006 15.07056410239206 e-st@r-II 1 41459U 16025D 20247.83667832 .00001273 00000-0 68090-4 0 9995 2 41459 98.1118 1.9458 0163083 308.3087 50.3563 15.06610056239242 AAUSAT4 1 41460U 16025E 20247.78561623 .00001934 00000-0 97898-4 0 9994 2 41460 98.1087 4.5054 0151711 296.0677 62.4980 15.08990599239458 LO-87 1 41557U 16033B 20247.76227177 .00001424 00000-0 54434-4 0 9994 2 41557 97.4032 337.4838 0013915 164.1479 196.0198 15.28182549237737 NuSat2 1 41558U 16033C 20247.75649815 .00001537 00000-0 55135-4 0 9995 2 41558 97.4095 340.0776 0013047 160.2585 199.9164 15.30185524237867 Lapan A3 1 41603U 16040E 20247.82278691 .00000132 00000-0 92465-5 0 9990 2 41603 97.3019 298.8802 0011844 291.2197 178.8849 15.19865854233040 Swayam 1 41607U 16040J 20247.71159521 .00001479 00000-0 63073-4 0 9999 2 41607 97.3110 305.2158 0011275 270.8438 89.1508 15.24433986233344 Pratham 1 41783U 16059A 20247.71129897 .00000044 00000-0 17505-4 0 9993 2 41783 98.0094 300.9410 0034850 70.7605 289.7362 14.63071311210329 AlSat 1N 1 41789U 16059G 20247.79778039 .00000036 00000-0 15763-4 0 9990 2 41789 98.0136 304.0279 0029484 58.0155 302.3901 14.64338677210497 ScatSat 1 41790U 16059H 20247.87622507 .00000000 00000-0 10886-4 0 9991 2 41790 98.1554 285.8040 0006812 48.3714 311.8056 14.50926632208592 TY-1 1 41844U 16066D 20247.85555938 .00001096 00000-0 46719-4 0 9990 2 41844 97.4037 255.1510 0016606 70.3185 50.1506 15.24966730212213 Pegasus-1 1 41846U 16066F 20247.44028976 .00000189 00000-0 39171-4 0 9990 2 41846 098.6550 298.2804 0366659 001.1438 359.0505 14.37810787200176 CAS-2T 1 41847U 16066G 20247.20308640 .00000043 00000-0 17138-4 0 9992 2 41847 098.6473 298.4692 0365555 357.4199 002.5093 14.38088138200599 EO-88 1 42017U 17008BX 20247.48523196 .00001656 00000-0 65806-4 0 9990 2 42017 097.3541 313.8930 0007496 056.2921 303.9031 15.26695901197452 CAS-4B 1 42759U 17034B 20247.69069647 .00000211 00000-0 26267-4 0 9995 2 42759 43.0203 317.1830 0010035 170.7865 328.3059 15.09873532177791 CAS-4A 1 42761U 17034D 20247.69818417 .00000157 00000-0 22912-4 0 9997 2 42761 43.0208 316.3878 0010112 170.5363 334.6315 15.09952037177792 UCLSat 1 42765U 17036A 20247.11492509 .00001364 00000-0 59621-4 0 9998 2 42765 097.2941 299.2475 0012914 109.9276 250.3354 15.23680447178409 NIUSat 1 42766U 17036B 20247.38825742 .00000987 00000-0 46271-4 0 9994 2 42766 097.2935 296.7692 0017122 104.9851 255.3282 15.21842190177548 LituanicaSAT 2 1 42768U 17036D 20247.45548834 .00002259 00000-0 94907-4 0 9991 2 42768 097.2999 299.6798 0016342 100.5228 259.7852 15.24336758177724 Aalto 1 1 42775U 17036L 20247.62931606 .00000839 00000-0 39657-4 0 9994 2 42775 97.2914 297.3408 0015526 103.4536 256.8432 15.21945590177560 URSA MAIOR 1 42776U 17036M 20247.21457664 .00000921 00000-0 43020-4 0 9998 2 42776 097.2928 297.2574 0015315 104.4178 255.8759 15.22136689177516 Max Valier Sat 1 42778U 17036P 20247.21574166 .00001009 00000-0 46090-4 0 9995 2 42778 097.2984 298.6764 0013910 106.9913 253.2849 15.22741239177569 Pegasus 1 42784U 17036V 20247.68168553 .00001185 00000-0 52666-4 0 9993 2 42784 97.2945 299.4563 0013484 109.2730 250.9967 15.23363646177689 NUDATSat 1 42787U 17036Y 20247.60411543 .00001360 00000-0 57652-4 0 9993 2 42787 097.2989 300.9613 0012409 101.1494 259.1148 15.24739303177600 SUCHAI 1 1 42788U 17036Z 20247.08607781 .00001607 00000-0 69214-4 0 9998 2 42788 097.2954 299.5394 0013023 109.4093 250.8553 15.23940864177705 SKCUBE 1 42789U 17036AA 20247.40316326 .00001335 00000-0 58271-4 0 9996 2 42789 097.2948 299.6759 0012921 108.8367 251.4273 15.23770720177661 VZLUSAT 1 1 42790U 17036AB 20247.39699060 .00001839 00000-0 76997-4 0 9999 2 42790 097.2974 300.7543 0012477 106.6629 253.5979 15.24729981177727 VENTA 1 1 42791U 17036AC 20247.44390673 .00001210 00000-0 53142-4 0 9994 2 42791 097.2946 299.7534 0012579 109.0425 251.2176 15.23745307177664 Robusta 1B 1 42792U 17036AD 20247.21581164 .00001455 00000-0 62897-4 0 9995 2 42792 097.2952 299.7696 0012482 109.4976 250.7611 15.23968014177669 D-SAT 1 42794U 17036AF 20247.34267670 .00000151 00000-0 18110-4 0 9995 2 42794 097.4891 276.1236 0127733 104.8622 256.6785 14.91312314174302 TechnoSat 1 42829U 17042E 20247.72952445 .00000151 00000-0 20474-4 0 9990 2 42829 97.5081 125.7866 0015024 29.5922 330.6145 14.91126514170951 QIKCOM-1 1 42983U 98067NF 20247.43333940 .00004322 00000-0 54218-4 0 9995 2 42983 051.6370 272.2551 0003818 002.1368 357.9642 15.62132304162477 AO-91 1 43017U 17073E 20247.73499210 .00000350 00000-0 32361-4 0 9990 2 43017 97.7169 156.9406 0257285 154.9851 206.4090 14.79003712150730 EcAMSat 1 43019U 98067NG 20247.32275463 .00009315 00000-0 89465-4 0 9998 2 43019 51.6388 255.8531 0003720 357.9377 2.1603 15.67407640245005 PICSAT 1 43132U 18004X 20247.68559488 .00001427 00000-0 60770-4 0 9992 2 43132 97.4421 318.5333 0010778 132.2677 227.9476 15.24588102146979 AO-92 1 43137U 18004AC 20246.88651063 .00001201 00000-0 52090-4 0 9996 2 43137 097.4407 317.5076 0010282 136.4187 223.7864 15.24254946146840 TianYi 2 1 43155U 18008A 20247.79444625 .00001104 00000-0 68340-4 0 9992 2 43155 97.4420 314.8701 0016104 235.0023 268.0348 15.11730742144750 Zhou Enlai 1 43156U 18008B 20247.84227322 .00000782 00000-0 50149-4 0 9991 2 43156 97.4460 314.7596 0013252 233.6451 237.6635 15.11283196144719 TianYi 6 1 43158U 18008D 20247.75894843 .00000747 00000-0 48699-4 0 9999 2 43158 97.4409 313.6395 0012573 232.7848 276.3820 15.10810494144648 S-Net D 1 43186U 18014G 20247.46188404 -.00000208 00000-0 -13090-4 0 9995 2 43186 097.6868 154.0114 0010433 330.1418 029.9207 14.96840213141367 S-Net B 1 43187U 18014H 20247.72911628 -.00000194 00000-0 -11868-4 0 9992 2 43187 97.6865 154.2502 0010409 329.0822 30.9785 14.96839842141401 S-Net A 1 43188U 18014J 20247.32790008 -.00000230 00000-0 -15034-4 0 9996 2 43188 097.6870 153.8885 0010436 330.7553 029.3083 14.96839861141344 S-Net C 1 43189U 18014K 20247.46205310 -.00000203 00000-0 -12631-4 0 9999 2 43189 097.6865 153.9825 0010420 330.0382 030.0242 14.96839008139919 FMN 1 1 43192U 18015A 20247.84508228 .00002873 00000-0 11467-3 0 9998 2 43192 97.4522 17.0111 0015851 167.4009 345.0773 15.25879380143856 Shaonian Xing 1 43199U 18015H 20247.89221455 .00002022 00000-0 81297-4 0 9999 2 43199 97.4313 15.1218 0016816 177.2722 304.7832 15.25966183143925 UBAKUSAT 1 43467U 98067NQ 20247.40034126 .00040241 00000-0 21476-3 0 9993 2 43467 051.6329 239.4020 0002799 045.0228 315.1000 15.79968983132416 EnduroSat One 1 43551U 98067NZ 20247.37608628 .00126110 17134-4 37306-3 0 9996 2 43551 051.6282 231.5618 0005643 060.9788 299.1783 15.92341396122744 EQUISat 1 43552U 98067PA 20247.26918739 .00038146 00000-0 21427-3 0 9990 2 43552 051.6289 247.6293 0005788 043.9291 316.2169 15.78846468122483 UiTMSat 1 1 43589U 98067PD 20247.42523288 .00062228 00000-0 27500-3 0 9995 2 43589 051.6309 242.4570 0005559 061.2170 298.9391 15.83832920118305 Maya 1 1 43590U 98067PE 20247.22848715 .00063800 00000-0 28172-3 0 9993 2 43590 051.6260 243.3473 0005419 055.2721 304.8792 15.83840951118209 Bhutan 1 1 43591U 98067PF 20247.38046780 .00063215 00000-0 27545-3 0 9996 2 43591 051.6321 242.2442 0005660 060.1114 300.0451 15.84123229118237 SiriusSat 1 1 43595U 98067PG 20247.72115131 .00046196 00000-0 24525-3 0 9999 2 43595 51.6251 247.4536 0003961 44.4306 315.7012 15.80016094117371 SiriusSat 2 1 43596U 98067PH 20247.47194438 .00048191 00000-0 25715-3 0 9998 2 43596 051.6246 249.6136 0003962 042.4848 317.6460 15.79885161117326 Tanusha-3 1 43597U 98067PJ 20247.33218092 .02926242 12017-4 85020-3 0 9991 2 43597 51.6130 225.5940 0001554 197.7191 162.3776 16.26620873117623 SurfSat 1 43614U 18070B 20247.54505147 .00003327 00000-0 84539-4 0 9998 2 43614 093.0266 186.8958 0017065 043.8500 316.4105 15.39545290110498 CP-7 DAVE 1 43615U 18070C 20247.58429118 .00003102 00000-0 79262-4 0 9994 2 43615 93.0269 186.8977 0017201 43.2430 317.0171 15.39380057110499 ELFIN-B 1 43616U 18070D 20247.42287994 .00004835 00000-0 11739-3 0 9990 2 43616 093.0228 186.8003 0017606 044.7009 315.5662 15.40890012110523 ELFIN-A 1 43617U 18070E 20247.38102409 .00005004 00000-0 12065-3 0 9995 2 43617 093.0281 187.3608 0016915 042.3895 317.8664 15.41111955110529 STARS-Me Mother 1 43640U 98067PQ 20247.50182092 .00012837 00000-0 12001-3 0 9997 2 43640 051.6330 271.7737 0004138 349.2625 010.8283 15.67666698108964 CubeBel 1 1 43666U 18083E 20247.86693579 .00001327 00000-0 67686-4 0 9993 2 43666 97.4862 273.5468 0016650 88.3170 36.4595 15.18394690102510 Changshagaoxin 1 43669U 18083H 20247.75733322 .00000780 00000-0 42348-4 0 9995 2 43669 97.4738 271.3909 0012538 83.2642 277.0018 15.17395780102401 Ten-Koh 1 43677U 18084G 20247.30682636 .00000028 00000-0 87787-5 0 9999 2 43677 097.8909 004.2173 0014587 260.7332 099.2236 14.90311220100539 PO-101 1 43678U 18084H 20247.89257913 .00000087 00000-0 14363-4 0 9994 2 43678 97.8921 6.3302 0008542 280.9663 79.0617 14.91647102100717 IRVINE 01 1 43693U 18088D 20247.41610271 .00002659 00000-0 11037-3 0 9994 2 43693 085.0368 025.3837 0017801 011.6621 348.5030 15.23183023100719 QO-100 1 43700U 18090A 20247.27966119 .00000128 00000-0 00000 0 0 9998 2 43700 0.0125 130.3107 0002093 53.5072 285.5071 1.00273074 6733 Reaktor Hello World 1 43743U 18096AA 20247.71206045 .00001299 00000-0 50792-4 0 9993 2 43743 97.4165 321.1784 0017041 206.5942 153.4425 15.27567432 98342 MinXSS-2 1 43758U 18099A 20247.47103229 .00000570 00000-0 56301-4 0 9998 2 43758 097.7013 318.1204 0014061 290.0335 069.9372 14.95716015095615 AO-95 1 43770U 18099N 20247.75047157 .00000642 00000-0 63869-4 0 9997 2 43770 97.7009 317.7466 0013081 298.5406 61.4498 14.95033899 95610 RANGE-B 1 43772U 18099Q 20247.35898771 .00000598 00000-0 59548-4 0 9990 2 43772 097.7080 317.9621 0012560 285.8094 074.1741 14.95236119095554 RANGE-A 1 43773U 18099R 20247.34098337 .00000564 00000-0 56794-4 0 9993 2 43773 097.6949 316.9250 0011999 285.7438 074.2459 14.94999172095541 MOVE-II 1 43780U 18099Y 20247.47661789 .00000884 00000-0 84969-4 0 9992 2 43780 097.7013 317.7424 0011979 296.3818 063.6173 14.95467093095573 SNUSat 2 1 43782U 18099AA 20247.63089614 .00000178 00000-0 21389-4 0 9996 2 43782 97.7006 317.8692 0011187 284.5384 75.4595 14.95298510 95602 SnugLite 1 43784U 18099AC 20247.46023242 .00000213 00000-0 24442-4 0 9997 2 43784 097.6967 317.5058 0013701 292.8768 067.1006 14.95397243095590 ITASat 1 1 43786U 18099AE 20247.72980740 .00000233 00000-0 26324-4 0 9996 2 43786 97.7021 318.2019 0013784 290.9674 69.0072 14.95363868 95630 EAGLET 1 1 43790U 18099AJ 20247.76884180 -.00000010 00000-0 43011-5 0 9993 2 43790 97.7015 318.5299 0012117 296.9170 63.0812 14.95747870 95351 ESEO 1 43792U 18099AL 20247.78537262 -.00000275 00000-0 -19548-4 0 9994 2 43792 97.6983 318.3301 0011991 292.9968 66.9988 14.95617153 95411 CSIM 1 43793U 18099AM 20247.47067762 .00000709 00000-0 68107-4 0 9999 2 43793 097.6984 318.0561 0011425 289.3906 070.6080 14.96118674095355 Astrocast 0.1 1 43798U 18099AS 20247.68313123 .00000633 00000-0 61676-4 0 9992 2 43798 97.7010 318.5602 0010778 273.4927 86.5061 14.95901456 95643 JO-97 1 43803U 18099AX 20247.66797572 .00000478 00000-0 48274-4 0 9997 2 43803 97.6982 317.9420 0013670 291.3749 68.6013 14.95549361 95622 Suomi 100 1 43804U 18099AY 20247.46872480 .00000485 00000-0 48930-4 0 9995 2 43804 097.6979 317.7311 0013744 292.2686 067.7077 14.95535975095602 Al Farabi 2 1 43805U 18099AZ 20247.77089865 .00000024 00000-0 73685-5 0 9992 2 43805 97.6992 318.1348 0013784 291.6847 68.2906 14.95670385 95656 PWSat 2 1 43814U 18099BJ 20247.18898277 .00031307 00000-0 16222-2 0 9991 2 43814 97.7938 329.7111 0007203 226.7061 133.3571 15.16103110 95483 CHOMPTT 1 43855U 18104G 20247.29455377 .00001008 00000-0 40821-4 0 9994 2 43855 085.0368 123.7188 0019390 121.0663 239.2486 15.23087182095373 ISAT 1 43879U 18111D 20247.74131665 .00000392 00000-0 39764-4 0 9998 2 43879 97.6946 153.8897 0012858 348.9535 11.1403 14.96287891 90178 UWE-4 1 43880U 18111E 20247.70882575 .00000253 00000-0 27355-4 0 9998 2 43880 97.6968 154.1692 0012205 352.3340 7.7693 14.96541594 90197 Sparrow 1 43881U 18111F 20247.28776665 .00000755 00000-0 71377-4 0 9994 2 43881 097.6969 153.8380 0012124 350.9522 009.1479 14.96578688092133 Lume 1 1 43908U 18111AJ 20247.71675314 .00001045 00000-0 44261-4 0 9996 2 43908 97.2564 145.3182 0019859 223.3282 136.6396 15.25175062 93951 FO-98 1 43933U 19003B 20247.68453597 .00000705 00000-0 33539-4 0 9996 2 43933 97.2233 294.4001 0016866 331.3779 28.6530 15.22211300 90437 FO-99 1 43937U 19003F 20247.66832390 .00001209 00000-0 51634-4 0 9996 2 43937 97.2196 295.8515 0022498 310.9114 49.0175 15.24551895 90551 Delphini 1 1 44030U 98067PW 20247.49242861 .00021618 00000-0 18729-3 0 9990 2 44030 051.6320 277.7088 0004943 028.2617 331.8647 15.69075755090758 MYSat 1 1 44045U 18092F 20247.41758620 .00002629 00000-0 82007-4 0 9995 2 44045 051.6402 023.6331 0010703 245.1831 114.8040 15.37028576087276 AstroCast 0.2 1 44083U 19018F 20247.74147603 .00000693 00000-0 33663-4 0 9998 2 44083 97.4145 307.6792 0011486 255.9236 104.0723 15.21700140 79281 AISTechSat 3 1 44103U 19018AB 20247.80710358 .00001031 00000-0 46441-4 0 9996 2 44103 97.4021 307.9622 0011822 273.0383 182.1359 15.23276452 79367 AISat 1 1 44104U 19018AC 20247.53016872 .00000731 00000-0 25851-4 0 9995 2 44104 097.4586 317.6756 0056433 296.3743 063.1711 15.31175135079753 Raavana-1 1 44329U 98067QE 20247.41930953 .00010602 00000-0 13812-3 0 9998 2 44329 051.6390 302.9151 0005309 305.8950 054.1549 15.59328619069165 Uguisu 1 44330U 98067QF 20247.43649971 .00010392 00000-0 13603-3 0 9993 2 44330 051.6367 303.0065 0005265 305.2310 054.8190 15.59225464069143 NepaliSat-1 1 44331U 98067QG 20247.53906716 .00010069 00000-0 13142-3 0 9997 2 44331 051.6368 302.1940 0005386 308.9192 051.1320 15.59345402069172 Prox-1 1 44339U 19036A 20247.62862188 .00000914 00000-0 16691-3 0 9998 2 44339 24.0009 339.9541 0010910 289.6758 70.2556 14.53093258 63510 Oculus-ASR 1 44348U 19036K 20247.27953407 .00011500 00000-0 16796-3 0 9993 2 44348 28.5132 232.4184 0362193 58.7912 304.7658 15.03884037 65526 Armadillo 1 44352U 19036P 20247.27262950 .00014288 00000-0 20567-3 0 9991 2 44352 028.5284 225.9959 0347573 068.2508 295.4704 15.07227578065532 NO-104 1 44354U 19036R 20247.29022739 .00011967 00000-0 17166-3 0 9996 2 44354 028.5276 228.9485 0358820 063.1266 300.5538 15.04966477065554 NO-103 1 44355U 19036S 20247.25562266 .00019020 00000-0 25677-3 0 9991 2 44355 028.5273 215.9406 0332481 084.2663 279.5733 15.11698405065688 CP9 1 44360U 19036X 20247.18922824 .00031916 -53613-5 34339-3 0 9996 2 44360 28.5101 195.8465 0307899 117.9798 245.2307 15.20540386 65741 Move-IIb 1 44398U 19038N 20247.42539603 .00001224 00000-0 73741-4 0 9991 2 44398 097.5427 207.6978 0023938 216.1708 143.7904 15.12474624064366 SONATE 1 44400U 19038Q 20247.48065852 .00000373 00000-0 25397-4 0 9999 2 44400 097.5470 207.7609 0024168 214.7084 145.2570 15.12023274064364 BeeSat 9 1 44412U 19038AC 20247.60859618 .00000734 00000-0 45854-4 0 9998 2 44412 97.5454 208.0000 0021487 219.3831 140.5838 15.12409229 64082 JAISAT-1 1 44419U 19038F 20247.67006673 .00000763 00000-0 46925-4 0 9999 2 44419 97.5457 208.3844 0020377 217.8866 142.0932 15.12893313 64420 LightSail-2 1 44420U 19036AC 20247.66142993 .00006767 00000-0 14480-2 0 9993 2 44420 24.0076 333.3993 0017277 301.4473 58.4330 14.56309697 61723 Taurus 1 1 44530U 19059C 20247.74181208 .00000653 00000-0 19751-3 0 9996 2 44530 98.5676 329.5774 0013498 286.5670 73.4058 14.45606206 51653 MO-106 1 44830U 19084G 20247.62788473 .00138183 89119-5 43569-3 0 9998 2 44830 96.9582 118.0348 0013528 287.5284 72.4512 15.91200082 42825 TRSI-Sat 1 44831U 19084H 20245.89636874 .00167398 11987-4 56729-3 0 9992 2 44831 96.9599 116.2200 0014235 295.5565 64.4237 15.89746393 42550 MO-105 1 44832U 19084J 20247.81847747 .00207918 18834-4 50050-3 0 9992 2 44832 96.9585 118.6868 0011130 278.0286 81.9728 15.96349542 42887 Duchifat 3 1 44854U 19089C 20247.69121506 .00000425 00000-0 40727-4 0 9992 2 44854 36.9672 355.9667 0009792 332.5315 27.4920 14.99116550 40043 OPS-SAT 1 44878U 19092F 20247.47688247 .00000982 00000-0 55044-4 0 9994 2 44878 097.4709 069.4384 0015749 086.5772 273.7261 15.15608689039351 TO-108 1 44881U 19093C 20246.39376470 -.00000054 00000-0 -38704-7 0 9990 2 44881 097.9541 321.9082 0015682 143.0967 217.1332 14.81417484038089 FloripaSat 1 1 44885U 19093G 20247.77677336 .00000225 00000-0 35038-4 0 9994 2 44885 97.9541 323.5022 0015476 148.9391 211.2752 14.82069492 38300 RS-44 1 44909U 19096E 20247.46334389 .00000041 00000-0 11467-3 0 9993 2 44909 082.5209 303.4852 0218098 044.3691 317.4657 12.79707685032161 SwampSat-2 1 45115U 19071E 20247.74103220 .00010781 00000-0 30662-3 0 9995 2 45115 51.6426 342.9532 0012383 342.6957 17.3602 15.36611666 33155 HO-107 1 45119U 19071J 20247.58973019 .00001224 00000-0 48287-4 0 9997 2 45119 51.6441 345.6574 0011996 338.1198 21.9270 15.33805321 33116 Phoenix 1 45258U 98067RB 20247.53074838 .00004396 00000-0 80801-4 0 9990 2 45258 051.6419 318.6536 0005502 275.1280 084.9082 15.51458332030596 AztechSat-1 1 45261U 98067RE 20247.55963685 .00007969 00000-0 13291-3 0 9990 2 45261 051.6414 317.3559 0007312 295.0225 065.0006 15.52946669030645 QARMAN 1 45263U 98067RG 20247.50290615 .00006866 00000-0 11904-3 0 9997 2 45263 051.6418 318.4739 0006797 290.8986 069.1276 15.52109908030658 Quetzal 1 1 45598U 98067RL 20247.49206265 .00006597 00000-0 11850-3 0 9995 2 45598 051.6425 319.9012 0003449 021.6285 338.4849 15.51183925019903 BY70-2 1 45857U 20042B 20247.73940417 .00000725 00000-0 11199-3 0 9995 2 45857 98.0104 320.2474 0012512 62.0066 298.2410 14.76281643 9249 UPMSat 2 1 46277U 20061F 20247.73833576 .00001858 00000-0 10000-3 0 9998 2 46277 97.4631 320.8213 0000596 27.6916 332.4674 15.16071151 94 /EX
